[[{"header":{"parameterUnit":"m.s-1","parameterCategory":1,"la1":30.2991,"la2":30.254,"lo1":-89.0895,"lo2":-89.0444,"dy":0.0017,"dx":0.0017,"nx":28,"ny":28,"refTime":"2025-03-24T21:00:00:Z","depth":0,"parameterNumber":2,"parameterNumberName":"U-component_of_WINDS"},"data":[0,0,0,0,0,0,0,0,0,0,0,0,0,0,0,0,0,0,0,0,0,0,0,0,0,0,0,0,0,0,0,0,0,0,0,0,0,0,0,0,0,0,0,0,0,0,0,0,0,0,0,0,0,0,0,0,0,0,-1.0153,-1.0153,0,-1.0185,-1.0186,-1.0186,-1.0159,-1.0158,-1.0157,-1.0156,-1.0191,-1.0193,-1.0195,0,0,0,0,0,0,0,0,0,0,0,0,0,-1.0069,-1.007,-1.0153,-1.0153,-1.0153,-1.0185,-1.0186,-1.0186,-1.016,-1.0158,-1.0157,-1.0156,-1.019,-1.0192,-1.0195,0,0,0,0,0,0,0,0,0,0,0,0,0,-1.0104,-1.0071,-1.0152,-1.0144,-1.0143,-1.0185,-1.0186,-1.0186,-1.016,-1.0158,-1.0156,-1.0155,-1.0189,-1.0192,-1.0195,-1.0247,0,0,-1.0204,-1.0206,0,0,0,0,0,0,0,0,-1.0102,-1.0107,-1.0145,-1.0145,-1.0144,-1.0166,-1.0169,-1.0207,-1.016,-1.0154,-1.0156,-1.0154,-1.0184,-1.0187,-1.0197,-1.0249,-1.025,-1.0205,-1.0206,-1.0208,-1.0208,0,0,0,0,0,0,0,-1.0099,-1.0105,-1.0165,-1.0145,-1.0145,-1.0139,-1.0142,-1.0176,-1.0178,-1.0154,-1.0152,-1.0156,-1.0184,-1.0195,-1.0198,-1.0251,-1.0204,-1.0207,-1.0209,-1.021,-1.0348,-1.035,0,0,0,0,0,0,-1.0098,-1.0103,-1.0164,-1.0166,-1.0118,-1.0142,-1.0145,-1.0161,-1.0178,-1.0178,-1.0158,-1.0155,-1.019,-1.0195,-1.0199,-1.0262,-1.0208,-1.021,-1.0212,-1.0346,-1.0349,-1.0351,0,0,0,0,0,0,-1.0096,-1.0103,-1.0163,-1.0134,-1.0142,-1.0145,-1.0163,-1.0163,-1.0173,-1.018,-1.0181,-1.0168,-1.0189,-1.0195,-1.0236,-1.0263,-1.0212,-1.0214,-1.0344,-1.0347,-1.035,-1.0388,0,0,0,0,0,0,-1.0094,-1.0103,-1.0122,-1.0135,-1.0143,-1.0199,-1.0165,-1.0164,-1.0178,-1.0175,-1.019,-1.0191,-1.0188,-1.0231,-1.0239,-1.0266,-1.0217,-1.0342,-1.0345,-1.0349,-1.0384,-1.0392,-1.0398,0,0,0,0,0,-1.0091,-1.0132,-1.0123,-1.0131,-1.0168,-1.02,-1.0205,-1.02,-1.0181,-1.0201,-1.0205,-1.0191,-1.0259,-1.0236,-1.0244,-1.0272,-1.034,-1.0344,-1.0349,-1.0381,-1.039,-1.0398,0,0,0,0,0,0,-1.0122,-1.0133,-1.0124,-1.017,-1.0185,-1.0196,-1.0221,-1.021,-1.023,-1.0226,-1.022,-1.0224,-1.0267,-1.0274,-1.0248,-1.0324,-1.0296,-1.0302,-1.0318,-1.0327,-1.0334,-1.0331,-1.0219,0,0,0,0,0,-1.0134,-1.016,-1.0168,-1.0208,-1.0216,-1.0217,-1.0231,-1.0226,-1.0241,-1.0247,-1.0255,-1.027,-1.0295,-1.0311,-1.0334,-1.0385,-1.0388,-1.0409,-1.0416,-1.0421,-1.0427,-1.0455,-1.0464,-1.0365,-1.0365,-1.0365,0,0,-1.016,-1.0169,-1.0186,-1.0215,-1.0225,-1.0252,-1.0222,-1.0252,-1.0272,-1.0252,-1.0291,-1.0297,-1.0314,-1.036,-1.0381,-1.0367,-1.0455,-1.0427,-1.0431,-1.0433,-1.046,-1.047,-1.0478,-1.0368,-1.0367,-1.0367,0,0,-1.0221,-1.023,-1.0265,-1.0276,-1.0292,-1.0293,-1.0301,-1.0314,-1.0318,-1.0357,-1.0342,-1.0366,-1.0409,-1.0422,-1.0434,-1.05,-1.0488,-1.0508,-1.0544,-1.0572,-1.058,-1.0587,-1.0611,-1.062,-1.0513,-1.0514,-1.0514,0,-1.0251,-1.029,-1.0284,-1.0315,-1.0329,-1.0311,-1.0347,-1.0358,-1.0381,-1.0392,-1.0376,-1.0429,-1.0439,-1.0489,-1.0505,-1.0515,-1.0525,-1.0506,-1.0579,-1.0586,-1.0592,-1.0616,-1.0625,-1.0516,-1.0516,-1.0515,-1.0515,0,-1.0327,-1.0355,-1.0381,-1.0404,-1.042,-1.0453,-1.0453,-1.047,-1.0464,-1.0467,-1.0508,-1.0519,-1.0545,-1.0556,-1.055,-1.0605,-1.0596,-1.058,-1.0552,-1.0604,-1.0626,-1.0635,-1.0519,-1.0518,-1.0518,-1.0517,0,0,-1.0408,-1.0427,-1.0437,-1.0448,-1.0465,-1.0486,-1.0519,-1.0544,-1.0559,-1.0576,-1.0604,-1.0641,-1.0626,-1.064,-1.0636,-1.066,-1.0713,-1.0641,-1.0641,-1.0655,-1.0775,-1.0788,-1.0798,-1.0705,-1.0707,-1.0708,-1.0774,0,-1.047,-1.0527,-1.0522,-1.0576,-1.0602,-1.0586,-1.0615,-1.0629,-1.0633,-1.0656,-1.066,-1.0686,-1.0665,-1.0673,-1.0696,-1.0702,-1.0738,-1.0697,-1.0732,-1.0733,-1.0729,-1.081,-1.0823,-1.0885,-1.0783,-1.0784,-1.0785,0,-1.055,-1.0569,-1.0626,-1.064,-1.065,-1.0676,-1.0699,-1.0721,-1.0737,-1.0738,-1.0754,-1.0746,-1.078,-1.0751,-1.0798,-1.077,-1.0785,-1.079,-1.0792,-1.0795,-1.0763,-1.0816,-1.0904,-1.0914,-1.0798,-1.0797,-1.0796,0,-1.0604,-1.0645,-1.0684,-1.0693,-1.071,-1.0729,-1.0737,-1.0751,-1.0766,-1.0787,-1.0797,-1.0821,-1.0834,-1.0853,-1.0852,-1.0831,-1.0901,-1.0871,-1.0903,-1.0903,-1.0919,-1.0918,-1.1011,-1.0927,-1.0927,-1.0927,-1.0927,0,-1.0674,-1.071,-1.0709,-1.0733,-1.0772,-1.0767,-1.0807,-1.0813,-1.0826,-1.0851,-1.0839,-1.0863,-1.086,-1.0885,-1.0885,-1.0925,-1.0931,-1.0933,-1.0933,-1.0934,-1.0934,-1.0944,-1.094,-1.0929,-1.0929,-1.0928,-1.0928,0,-1.0742,-1.0743,-1.0784,-1.0797,-1.0801,-1.083,-1.0841,-1.0864,-1.0867,-1.09,-1.0907,-1.0912,-1.094,-1.0941,-1.0974,-1.0974,-1.1023,-1.1017,-1.1017,-1.1016,-1.1049,-1.1046,-1.1152,-1.1166,-1.1072,-1.1073,-1.1074,0,-1.0787,-1.0814,-1.0829,-1.0845,-1.0855,-1.0881,-1.0896,-1.0893,-1.091,-1.0931,-1.0952,-1.0979,-1.1001,-1.1048,-1.1055,-1.108,-1.1076,-1.1111,-1.1079,-1.1081,-1.1077,-1.1076,-1.1079,-1.1117,-1.1118,-1.1119,-1.112,0,-1.0867,-1.0866,-1.0889,-1.0912,-1.0931,-1.095,-1.0967,-1.0981,-1.0979,-1.0999,-1.1028,-1.1045,-1.1079,-1.1107,-1.1132,-1.1141,-1.1131,-1.113,-1.1139,-1.1141,-1.114,-1.1142,-1.1035,-1.1127,-1.1127,-1.1126,-1.1126,-1.1125,-1.0925,-1.0948,-1.0963,-1.0989,-1.1002,-1.1018,-1.1041,-1.1046,-1.107,-1.1097,-1.1094,-1.1127,-1.1143,-1.1175,-1.1187,-1.1213,-1.1201,-1.1213,-1.1217,-1.122,-1.1224,-1.1136,-1.1217,-1.1217,-1.1217,-1.1216,-1.1216,0,-1.1005,-1.1013,-1.1038,-1.1062,-1.1083,-1.1071,-1.1089,-1.1108,-1.1136,-1.1152,-1.1174,-1.1208,-1.1235,-1.1244,-1.1271,-1.129,-1.1286,-1.1297,-1.1296,-1.1299,-1.1233,-1.1223,-1.13,-1.13,-1.13,-1.13,-1.13,-1.13,-1.1049,-1.1088,-1.1089,-1.1135,-1.1143,-1.1175,-1.1187,-1.1202,-1.1215,-1.1253,-1.1276,-1.1281,-1.1295,-1.1322,-1.1347,-1.1349,-1.136,-1.1373,-1.1373,-1.1312,-1.1303,-1.1295,-1.1286,-1.1375,-1.1375,-1.1437,-1.1438,-1.1438]},{"header":{"parameterUnit":"m.s-1","parameterCategory":1,"la1":30.2991,"la2":30.254,"lo1":-89.0895,"lo2":-89.0444,"dy":0.0017,"dx":0.0017,"nx":28,"ny":28,"refTime":"2025-03-24T21:00:00:Z","depth":0,"parameterNumber":3,"parameterNumberName":"V-component_of_WINDS"},"data":[0,0,0,0,0,0,0,0,0,0,0,0,0,0,0,0,0,0,0,0,0,0,0,0,0,0,0,0,0,0,0,0,0,0,0,0,0,0,0,0,0,0,0,0,0,0,0,0,0,0,0,0,0,0,0,0,0,0,1.2186,1.2187,0,1.2215,1.2215,1.2215,1.2206,1.2206,1.2205,1.2204,1.2235,1.2236,1.2238,0,0,0,0,0,0,0,0,0,0,0,0,0,1.2126,1.2127,1.2186,1.2187,1.2187,1.2215,1.2215,1.2215,1.2206,1.2206,1.2205,1.2204,1.2234,1.2236,1.2238,0,0,0,0,0,0,0,0,0,0,0,0,0,1.2153,1.2128,1.2186,1.2186,1.2186,1.2215,1.2215,1.2215,1.2206,1.2206,1.2205,1.2204,1.2234,1.2236,1.2238,1.2269,0,0,1.2244,1.2245,0,0,0,0,0,0,0,0,1.2152,1.2155,1.2185,1.2186,1.2186,1.2206,1.2205,1.2234,1.2207,1.2199,1.2204,1.2203,1.2226,1.2229,1.2236,1.2271,1.2272,1.2245,1.2246,1.2247,1.2247,0,0,0,0,0,0,0,1.215,1.2154,1.2197,1.2186,1.2186,1.2185,1.2188,1.221,1.2217,1.2199,1.2199,1.2202,1.2226,1.2234,1.2237,1.2272,1.2244,1.2246,1.2248,1.2248,1.2335,1.2336,0,0,0,0,0,0,1.2147,1.2153,1.2197,1.2198,1.2166,1.2187,1.219,1.22,1.2217,1.2219,1.2203,1.2202,1.2231,1.2234,1.2238,1.2276,1.2247,1.2249,1.225,1.2334,1.2335,1.2336,0,0,0,0,0,0,1.2146,1.2151,1.2195,1.2175,1.2181,1.2189,1.2201,1.2202,1.221,1.222,1.2221,1.221,1.223,1.2235,1.2262,1.2277,1.225,1.2251,1.2333,1.2334,1.2336,1.2353,0,0,0,0,0,0,1.2144,1.2151,1.2162,1.2176,1.2182,1.2218,1.2202,1.2203,1.2213,1.2212,1.2226,1.2228,1.223,1.2259,1.2264,1.2279,1.2253,1.2331,1.2333,1.2335,1.2351,1.2355,1.2358,0,0,0,0,0,1.2142,1.2166,1.2163,1.2168,1.2196,1.2219,1.2223,1.2224,1.2214,1.2226,1.2233,1.2228,1.2274,1.2261,1.2267,1.2284,1.233,1.2333,1.2335,1.2349,1.2354,1.2358,0,0,0,0,0,0,1.2155,1.2168,1.2165,1.2193,1.2205,1.2217,1.2233,1.2229,1.2244,1.2242,1.2244,1.2248,1.2275,1.2282,1.2267,1.2315,1.2301,1.2305,1.231,1.2314,1.2318,1.2316,1.2255,0,0,0,0,0,1.2161,1.2178,1.2188,1.2213,1.2219,1.2225,1.2235,1.2235,1.2247,1.2253,1.2261,1.2274,1.2292,1.2303,1.232,1.2352,1.2355,1.2366,1.237,1.2372,1.2376,1.2394,1.2399,1.2344,1.2344,1.2344,0,0,1.2174,1.2183,1.2194,1.2216,1.2225,1.2243,1.2229,1.2249,1.2262,1.2256,1.2281,1.2288,1.2303,1.2332,1.2346,1.2339,1.2392,1.2375,1.2378,1.2379,1.2397,1.2402,1.2407,1.2346,1.2345,1.2345,0,0,1.2207,1.2215,1.2237,1.2246,1.226,1.2264,1.2269,1.2282,1.2286,1.2312,1.2308,1.2324,1.2355,1.2365,1.2375,1.2412,1.2408,1.2418,1.2437,1.2454,1.2459,1.2463,1.2477,1.2482,1.2421,1.2421,1.2421,0,1.2221,1.2248,1.2248,1.2269,1.2279,1.2273,1.2296,1.2305,1.2324,1.2331,1.2323,1.2362,1.2371,1.2403,1.2413,1.242,1.2427,1.2416,1.2458,1.2462,1.2465,1.2479,1.2484,1.2422,1.2422,1.2422,1.2422,0,1.2265,1.2284,1.23,1.2318,1.233,1.2351,1.2356,1.2368,1.2367,1.2372,1.2399,1.241,1.2429,1.2437,1.2436,1.2469,1.2465,1.2457,1.2443,1.2472,1.2485,1.249,1.2424,1.2423,1.2423,1.2423,0,0,1.2307,1.2325,1.2331,1.234,1.2355,1.237,1.2391,1.241,1.2421,1.2434,1.2452,1.2478,1.2472,1.2483,1.2483,1.2499,1.2529,1.249,1.249,1.2497,1.2567,1.2573,1.2579,1.2526,1.2527,1.2528,1.2566,0,1.2342,1.2379,1.238,1.2414,1.2432,1.2427,1.2446,1.2457,1.2463,1.2479,1.2485,1.2504,1.2493,1.25,1.2515,1.2522,1.2543,1.2519,1.2544,1.2545,1.2541,1.2586,1.2592,1.2627,1.2571,1.2572,1.2573,0,1.2387,1.2402,1.2438,1.2451,1.2458,1.2475,1.2493,1.2508,1.2522,1.2524,1.2537,1.2535,1.2558,1.2543,1.2574,1.2558,1.2569,1.2574,1.2575,1.2578,1.2561,1.259,1.2639,1.2644,1.258,1.258,1.2579,0,1.2415,1.2444,1.2469,1.2476,1.2492,1.2504,1.2512,1.2524,1.2536,1.2551,1.2559,1.2577,1.2587,1.2601,1.2605,1.2593,1.2637,1.2622,1.2641,1.2641,1.265,1.265,1.2702,1.2656,1.2656,1.2656,1.2656,0,1.2454,1.2477,1.2482,1.2497,1.2523,1.2524,1.2549,1.2556,1.2567,1.2585,1.2581,1.2598,1.2602,1.2619,1.2622,1.2649,1.2653,1.2657,1.2657,1.2657,1.2657,1.2665,1.2663,1.2657,1.2657,1.2657,1.2656,0,1.249,1.2494,1.2522,1.2534,1.2538,1.2556,1.2568,1.2583,1.2588,1.261,1.2615,1.2623,1.2644,1.2649,1.2673,1.2676,1.2707,1.2705,1.2702,1.2702,1.2721,1.272,1.278,1.2789,1.2737,1.2737,1.2738,0,1.2515,1.2532,1.2546,1.2558,1.2565,1.2583,1.2595,1.2597,1.261,1.2627,1.264,1.266,1.2677,1.271,1.2718,1.2737,1.2736,1.2756,1.2739,1.2739,1.2737,1.2737,1.2739,1.2759,1.276,1.276,1.2761,0,1.2559,1.256,1.2577,1.2594,1.2608,1.2622,1.2635,1.2644,1.2649,1.2663,1.2684,1.2696,1.2721,1.2742,1.2761,1.2769,1.2766,1.2766,1.2772,1.2772,1.277,1.2772,1.2712,1.2765,1.2764,1.2764,1.2764,1.2764,1.2591,1.2606,1.2618,1.2637,1.2647,1.266,1.2675,1.2682,1.2699,1.2719,1.272,1.2743,1.2757,1.2782,1.2792,1.281,1.2804,1.2812,1.2814,1.2816,1.2818,1.2767,1.2813,1.2813,1.2813,1.2813,1.2813,0,1.2635,1.2643,1.266,1.2679,1.2694,1.2689,1.2703,1.2716,1.2736,1.2749,1.2765,1.279,1.281,1.282,1.2839,1.2852,1.2852,1.2858,1.2857,1.2859,1.2822,1.2815,1.2858,1.2858,1.2858,1.2858,1.2858,1.2858,1.266,1.2686,1.2689,1.272,1.2728,1.275,1.2759,1.2771,1.2781,1.2808,1.2825,1.2831,1.2843,1.2864,1.2882,1.2884,1.2892,1.2899,1.2901,1.2866,1.2862,1.2857,1.2851,1.2901,1.2901,1.2937,1.2937,1.2938]}]]